Regional Weather Roundup
Issued by NWS

Home | Current Version | Previous Version | Graphics & Text | Print | Product List | Glossary On
Versions: 1 2 3 4 5 6 7 8 9 10 11 12 13 14 15 16 17 18 19 20 21 22 23 24 25 26 27 28 29 30 31 32 33 34 35 36 37 38 39 40 41 42 43 44 45 46 47 48 49 50
359
ASUS44 KJAN 230710
RWRMS

MISSISSIPPI HOURLY WEATHER ROUNDUP
NATIONAL WEATHER SERVICE JACKSON MS
200 AM CDT WED APR 23 2014

NOTE: "FAIR: INDICATES FEW OR NO CLOUDS BELOW 12,000 FEET WITH NO
SIGNIFICANT WEATHER AND/OR OBSTRUCTIONS TO VISIBILITY.

MSZ001>002-007>008-010>013-018>021-025>028-034>036-230800-
NORTHWEST MISSISSIPPI

CITY           SKY/WX    TMP DP  RH WIND       PRES   REMARKS
CLARKSDALE       N/A     54  50  87 CALM      29.96F
CLEVELAND      FAIR      60  49  68 CALM      29.94F
GREENWOOD      CLEAR     55  54  96 NE3       29.95S FOG
GREENVILLE     CLEAR     58  49  72 CALM      29.94F
GRENADA        FAIR      52  50  93 CALM      29.96S
OLIVE BRANCH   CLEAR     54  45  71 NE5       29.97S
OXFORD         FAIR      48  45  87 CALM      29.98R
TUNICA         SUNNY     52  46  82 N3        29.97S
$$

MSZ003>006-009-014>017-022>024-029>033-037>039-230800-
NORTHEAST MISSISSIPPI

CITY           SKY/WX    TMP DP  RH WIND       PRES   REMARKS
BELMONT        FAIR      56  45  66 N3        29.95S
COLUMBUS AFB   CLEAR     59  54  81 W3        29.93S
CORINTH        FAIR      50  45  81 NW5       29.96S
GOLDN TRIANGLE CLOUDY    59  54  82 NW5       29.96S
STARKVILLE     FAIR      57  54  88 CALM      29.94S
TUPELO         CLEAR     56  45  66 N7        29.94S
$$

MSZ040-058-230800-
CENTRAL MISSISSIPPI

CITY           SKY/WX    TMP DP  RH WIND       PRES   REMARKS
JACKSON INTL   FOG       57  56  96 CALM      29.94S VSB 1/4
JACKSON HAWKNS CLEAR     63  58  83 NW3       29.95S
MERIDIAN KEY   FOG       56  55  97 CALM      29.92S VSB 1/4
MERIDIAN NAS   CLEAR     59  57  93 CALM      29.92S FOG
RAYMOND        HAZE      55  50  82 CALM      29.95S VSB<1/4
VICKSBURG      FOG       60  59  96 CALM      29.95S VSB 1/2
$$

MSZ059>079-230800-
SOUTH MISSISSIPPI

CITY           SKY/WX    TMP DP  RH WIND       PRES   REMARKS
BROOKHAVEN     FAIR      61  59  94 CALM      29.96S FOG
HATTIESBURG    CLEAR     58  57  97 CALM      29.93S FOG
MCCOMB         CLEAR     59  57  93 NW5       29.94F
NATCHEZ        CLEAR     57  55  94 CALM      29.95F
PINE BELT      CLEAR     63  59  88 NW6       29.93S
$$

MSZ080>082-230800-
COASTAL MISSISSIPPI

CITY           SKY/WX    TMP DP  RH WIND       PRES   REMARKS
BILOXI         CLEAR     65  65  97 N2        29.91S
PASCAGOULA     CLEAR     61  61 100 CALM      29.91S FOG
GULFPORT       CLEAR     65  61  87 CALM      29.91S FOG
$$



USA.gov is the U.S. government's official web portal to all federal, state and local government web resources and services.